Location: Unspecified
(31.2403°N, 0.0000°E)
Time: 05:22:25
(UTC+00:00)

Transit 2A - All Passes

Search period start: 04 April 2026 00:00
Search period end: 14 April 2026 00:00
Orbit: 591 x 953 km, 66.7° (Epoch: 29 March)

Date Brightness Start Highest point End Pass type
(mag) Time Alt. Az. Time Alt. Az. Time Alt. Az.
4 Apr - 01:18:42 10° SSW 01:24:57 77° WNW 01:31:15 10° NNE visible
4 Apr - 03:06:42 10° WNW 03:08:57 12° NW 03:11:11 10° NNW visible
4 Apr - 10:11:57 10° N 10:16:24 27° NE 10:20:29 10° ESE daylight
4 Apr - 11:55:05 10° NW 11:59:16 26° WSW 12:03:07 10° SSW daylight
5 Apr - 00:42:21 10° SSW 00:48:34 71° ESE 00:54:50 10° NNE visible
5 Apr - 02:28:03 10° W 02:32:11 18° NW 02:36:17 10° N visible
5 Apr - 09:36:17 10° N 09:39:45 18° NE 09:43:00 10° E daylight
5 Apr - 11:18:12 10° NW 11:23:04 45° WSW 11:27:28 10° S daylight
6 Apr - 00:06:21 10° S 00:12:16 46° ESE 00:18:13 10° NE visible
6 Apr - 01:50:20 10° WSW 01:55:31 26° NW 02:00:39 10° N visible
6 Apr - 09:01:29 10° NNE 09:02:59 11° NE 09:04:27 10° ENE daylight
6 Apr - 10:41:37 10° NNW 10:46:47 78° WSW 10:51:25 10° SSE daylight
6 Apr - 23:30:42 10° SSE 23:36:00 30° ESE 23:41:21 10° NE visible
7 Apr - 01:13:06 10° SW 01:18:55 39° WNW 01:24:43 10° N visible
7 Apr - 10:05:15 10° NNW 10:10:23 62° ENE 10:15:00 10° SE daylight
7 Apr - 22:55:37 10° SSE 22:59:49 19° ESE 23:04:02 10° ENE night (unlit)
8 Apr - 00:36:15 10° SW 00:42:24 58° WNW 00:48:34 10° NNE visible
8 Apr - 09:29:06 10° N 09:33:53 37° ENE 09:38:14 10° SE daylight
8 Apr - 11:13:08 10° WNW 11:16:27 18° WSW 11:19:34 10° SSW daylight
8 Apr - 22:21:53 10° ESE 22:23:40 11° ESE 22:25:29 10° E night (unlit)
8 Apr - 23:59:41 10° SSW 00:05:58 87° WNW 00:12:16 10° NNE visible
9 Apr - 01:46:49 10° WNW 01:49:49 14° NW 01:52:48 10° NNW visible
9 Apr - 08:53:10 10° N 08:57:17 23° NE 09:01:05 10° ESE daylight
9 Apr - 10:35:54 10° NW 10:40:17 31° WSW 10:44:19 10° S daylight
9 Apr - 23:23:27 10° S 23:29:37 62° ESE 23:35:47 10° NNE visible
10 Apr - 01:08:34 10° W 01:13:05 20° NW 01:17:33 10° N visible
10 Apr - 08:17:41 10° NNE 08:20:35 15° NE 08:23:21 10° E daylight
10 Apr - 09:59:07 10° NW 10:04:03 53° WSW 10:08:31 10° S daylight
10 Apr - 22:47:32 10° S 22:53:18 40° ESE 22:59:06 10° NE visible
11 Apr - 00:31:01 10° WSW 00:36:26 30° WNW 00:41:48 10° N visible
11 Apr - 09:22:36 10° NNW 09:27:44 88° ENE 09:32:20 10° SSE daylight
11 Apr - 22:12:02 10° SSE 22:17:04 26° ESE 22:22:06 10° NE night (unlit)
11 Apr - 23:53:55 10° SW 23:59:52 44° WNW 00:05:47 10° N visible
12 Apr - 08:46:18 10° NNW 08:51:18 51° ENE 08:55:48 10° SE daylight
12 Apr - 10:31:48 10° W 10:33:34 12° WSW 10:35:19 10° SW daylight
12 Apr - 21:37:12 10° SE 21:40:53 16° ESE 21:44:33 10° ENE night (unlit)
12 Apr - 23:17:08 10° SW 23:23:24 67° WNW 23:29:35 10° NNE visible
13 Apr - 08:10:13 10° N 08:14:45 31° ENE 08:18:55 10° ESE daylight
13 Apr - 09:53:47 10° WNW 09:57:28 21° WSW 10:00:54 10° SSW daylight
13 Apr - 22:40:41 10° SSW 22:46:58 82° ESE 22:53:14 10° NNE visible
